This is the latest recevied weather packets stored in our database for station/object K1KOF. If no packets are shown the sender has not sent any weather packets the latest 10 day(s).
| Time | Temp. | Humidity | Pressure | Rain* | Wind** | Luminosity | Snow |
|---|---|---|---|---|---|---|---|
| 1777728832 | 15° C | 99% | 1022.9 hPa | 0 mm | - | 94 W/m² | - |
| 1777728529 | 15° C | 99% | 1022.9 hPa | 0 mm | - | 81 W/m² | - |
| 1777728227 | 15° C | 99% | 1022.9 hPa | 0 mm | - | 56 W/m² | - |
| 1777727923 | 14.44° C | 99% | 1022.4 hPa | 0 mm | - | 48 W/m² | - |
| 1777726106 | 15° C | 99% | 1022.4 hPa | 0 mm | - | 86 W/m² | - |
| 1777725500 | 14.44° C | 99% | 1022.7 hPa | 0 mm | - | 40 W/m² | - |
| 1777724590 | 14.44° C | 99% | 1023.3 hPa | 0 mm | - | 31 W/m² | - |
| 1777724289 | 14.44° C | 99% | 1023.3 hPa | 0 mm | - | 43 W/m² | - |
| 1777723986 | 14.44° C | 99% | 1023.3 hPa | 0 mm | - | 44 W/m² | - |
| 1777723683 | 13.89° C | 99% | 1023.4 hPa | 0 mm | - | 26 W/m² | - |
| 1777723379 | 13.89° C | 99% | 1023.2 hPa | 0 mm | - | 15 W/m² | - |
| 1777722774 | 13.89° C | 99% | 1022.9 hPa | 0 mm | - | 12 W/m² | - |
| 1777722470 | 13.89° C | 99% | 1022.6 hPa | 0 mm | - | 12 W/m² | - |
| 1777721864 | 13.89° C | 99% | 1022.2 hPa | 0 mm | - | 13 W/m² | - |
| 1777721562 | 13.89° C | 99% | 1021.8 hPa | 0 mm | - | 12 W/m² | - |
| 1777721260 | 13.89° C | 99% | 1021.6 hPa | 0 mm | - | 10 W/m² | - |
| 1777720957 | 13.89° C | 99% | 1021.3 hPa | 0 mm | - | 10 W/m² | - |
| 1777720654 | 13.89° C | 99% | 1021.6 hPa | 0 mm | - | 7 W/m² | - |
| 1777720352 | 13.89° C | 99% | 1021.6 hPa | 0 mm | - | 2 W/m² | - |
| 1777720049 | 13.89° C | 99% | 1021.5 hPa | 0 mm | - | 2 W/m² | - |
| 1777719747 | 13.89° C | 99% | 1021.6 hPa | 0 mm | - | 0 W/m² | - |
| 1777719445 | 13.89° C | 99% | 1021.5 hPa | 0 mm | - | 0 W/m² | - |
| 1777719141 | 13.89° C | 99% | 1021.2 hPa | 0 mm | - | 0 W/m² | - |
| 1777718838 | 13.89° C | 99% | 1021.3 hPa | 0 mm | - | 0 W/m² | - |
| 1777718535 | 14.44° C | 99% | 1021.1 hPa | 0 mm | - | 0 W/m² | - |
* Rain latest hour (hover to see other rain measurements)
** Current wind speed in m/s (hover to see current wind gust speed)